Regional Weather Roundup
Issued by NWS

Home | Current Version | Previous Version | Graphics & Text | Print | Product List | Glossary Off
Versions: 1 2 3 4 5 6 7 8 9 10 11 12 13 14 15 16 17 18 19 20 21 22 23 24 25 26 27 28 29 30 31 32 33 34 35 36 37 38 39 40 41 42 43 44 45 46 47 48 49 50

000
ASUS43 KIND 230409
RWRIN

WEATHER ROUNDUP FOR INDIANA
NATIONAL WEATHER SERVICE INDIANAPOLIS IN
1200 AM EDT WED JUL 23 2014

NOTE: "FAIR" INDICATES FEW OR NO CLOUDS BELOW 12,000 FEET WITH NO
SIGNIFICANT WEATHER AND/OR OBSTRUCTIONS TO VISIBILITY.

* - STATION DOES NOT REPORT WEATHER SUCH AS PRECIPITATION OR FOG.

+ - STATION NOT QUALITY CONTROLLED BY THE NATIONAL WEATHER SERVICE.
    USE DATA WITH CAUTION...ESPECIALLY DEWPOINT AND RELATIVE
    HUMIDITY OBSERVATIONS.

INZ001>003-010>013-019-020-230500-
NORTHWEST INDIANA

CITY           SKY/WX    TMP DP  RH WIND       PRES   REMARKS
GARY /AIRPORT/ PTCLDY    82  74  78 SW5       29.96S
KNOX *+        PTCLDY    77  68  73 SW6       29.97S
LA PORTE +     CLEAR     76  70  81 SW7       29.99R
MICHIGAN CITY+ PTCLDY    77  70  78 SW6       29.97R
MONTICELLO +   CLEAR     73  70  92 SW3       29.99F
RENSSELAER +   PTCLDY    73  72  94 SW8       29.99S
VALPARAISO     CLEAR     76  71  85 SW8       29.98F

$$

LMZ046-743>745-230500-
SOUTHERN LAKE MICHIGAN

STATION/POSITION TIME  TEMP WIND        PRES
                       AIR  DIR/SP/G
                 (UTC) (F)  (DEG/KT/KT) (MB)
MICHIGAN CITY    0400   79  190/ 10/ 13   N/A

$$

INZ004-005-014>016-021>024-230500-
NORTH CENTRAL INDIANA

CITY           SKY/WX    TMP DP  RH WIND       PRES   REMARKS
GOSHEN         CLOUDY    80  69  69 SW6       29.99R
LOGANSPORT +   CLOUDY    72  68  88 SW7       30.01S
PERU/GRISSOM   PTCLDY    73  73 100 SW8       30.01S
ROCHESTER +    CLOUDY    79  70  73 SW6       30.00S
SOUTH BEND     PTCLDY    79  70  74 SW8       29.99R
WARSAW +       CLOUDY    79  70  73 SW8       30.00R

$$

INZ006>009-017-018-025>027-230500-
NORTHEAST INDIANA

CITY           SKY/WX    TMP DP  RH WIND       PRES   REMARKS
ANGOLA *+      CLOUDY    79  70  73 SW5       30.00R
AUBURN +       PTCLDY    79  66  65 CALM      30.01R
FORT WAYNE     MOCLDY    75  68  78 SW7       30.00R
HUNTINGTON +   CLEAR     75  69  81 SW3       30.00R

$$

INZ028-029-035-036-043>045-051>053-230500-
WEST CENTRAL INDIANA

CITY           SKY/WX    TMP DP  RH WIND       PRES   REMARKS
GREENCASTLE +  CLEAR     72  70  94 CALM      30.04S
LAFAYETTE      CLEAR     74  70  87 SW3       30.00F
TERRE HAUTE    PTCLDY    72  68  87 CALM      30.03S

$$

INZ030>032-037>040-046>048-054>057-064-065-230500-
CENTRAL INDIANA

CITY           SKY/WX    TMP DP  RH WIND       PRES   REMARKS
CP ATTERBURY + PTCLDY    70  68  94 CALM      30.03F FOG
INDIANAPOLIS   PTCLDY    76  68  76 SW7       30.02S
-EAGLE CREEK   PTCLDY    77  68  73 SW3       30.02S
KOKOMO *+      PTCLDY    75  70  83 SW7       30.02R
MARION +       PTCLDY    71  67  87 W3        30.02R
MT COMFORT *+  CLEAR     73  72  94 S5        30.03S
SHELBYVILLE    PTCLDY    76  68  76 S7        30.02F
ZIONSVILLE +   CLEAR     75  67  76 SW5       30.04R

$$

INZ033-034-041-042-049-050-058-059-230500-
EAST CENTRAL INDIANA

CITY           SKY/WX    TMP DP  RH WIND       PRES   REMARKS
MUNCIE         CLOUDY    78  65  63 SW5       30.02S

$$

INZ060-061-067>069-081>083-085>088-230500-
SOUTHWEST INDIANA

CITY           SKY/WX    TMP DP  RH WIND       PRES   REMARKS
EVANSVILLE     CLEAR     79  71  76 CALM      30.05F
HUNTINGBURG *+ CLEAR     73  68  83 CALM      30.05F
WASHINGTON +   PTCLDY    71  70  97 S7        30.02F

$$

INZ062-063-066-070>080-084-089>092-230500-
SOUTH CENTRAL AND SOUTHEAST INDIANA

CITY           SKY/WX    TMP DP  RH WIND       PRES   REMARKS
BLOOMINGTON    MOCLDY    74  69  85 SW5       30.04F
SEYMOUR +      CLEAR     66  57  72 S3        30.03

$$



USA.gov is the U.S. government's official web portal to all federal, state and local government web resources and services.